{"data":{"norad_id":43833,"epoch":"2026-09-20T05:26:40.532928Z","epoch_age_seconds":41723,"freshness":"FRESH","line1":"1 43833U 18102C   26263.22685802  .00003469  00000+0  12532-3 0  9992","line2":"2 43833  97.3079 326.2184 0010942 151.0100 209.1750 15.29082212430315","mean_motion":15.29082212,"eccentricity":0.0010942,"inclination_deg":97.3079,"raan_deg":326.2184,"arg_perigee_deg":151.01,"mean_anomaly_deg":209.175,"bstar":0.00012532,"rev_number":43031,"period_min":94.174138492954,"perigee_km":471.05202392802,"apogee_km":486.05720786024,"semimajor_km":6856.6916158941,"source":"CELESTRAK","updated_at":"2026-09-20T09:00:33.974727Z"}}